Terminal Aerodrome Forecast
Issued by NWS

Home | Current Version | Previous Version | Text Only | Print | Product List | Glossary On
Versions: 1 2 3 4 5 6 7 8 9 10 11 12 13 14 15 16 17 18 19 20 21 22 23 24 25 26
000
FTUS45 KRIW 210500
TAFPNA
TAF
KPNA 210538Z 2106/2206 VRB05KT P6SM VCSH SCT020 OVC035
     FM210700 VRB05KT 2SM -SN SCT008 OVC015
     FM211600 28009KT 3SM -SN SCT012 OVC025
     FM220000 30013G23KT 2SM -SHSN BKN012
      AMD LTD TO CLD VIS AND WIND=

USA.gov is the U.S. government's official web portal to all federal, state and local government web resources and services.